SL-16 DEB, 22408

Orbit data source: Space-Track

SL-16 DEB, 22408 is space debris in LEO originally from a launch on Fri, 25 Dec 1992 UTC launched from the Tyuratam Missile And Space Complex (TTMTR). Debris objects in space refer to the collection of defunct objects orbiting the Earth. Examples of debris include non-operational satellites, rocket bodies, and fragments generated from explosions, collisions, or faulty payload assembly.

Loading next visibility...
Identifier
22408, 1992-093CZ
Orbit
LEO
Country
Flag of CISCIS
Related business
Manufacturer
Unknown
Mission
Spacecraft
Bus & Motor
Unknown
Mass
Unknown
Launch date (UTC)
1992-12-25 (33 years ago)
Launch vehicle
Unknown
Launch site
Tyuratam Missile And Space Complex (TTMTR)
Object type
Payload
Rocket body
Debris
Shape & HBR
Unknown shape, 0.1 m
Radar Cross Section
Small (<0.1 m²)

Expand to show TLE details & history
Last TLE update: 2 days ago

TLE from 2 days ago
0 SL-16 DEB
1 22408U 92093CZ  26036.06411476  .00002240  00000-0  11473-2 0  9991
2 22408  71.0775  56.8058 0122861 249.5345 141.1365 14.12715183689422
Epoch: 2026-02-05T01:32Z
TLE epoch observation values (Epoch: 2026-02-05T01:32:19.515Z)
Latitude
29.7202°
Longitude
-90.27136°
Altitude
922.873 km
Speed
7.358 km/s
True Right ascension
04h 32m 07s
True Declination
29° 34' 33"
Sunlit
Object was in daylight at epoch
Visualization orbit readout
Latitude
Unknown
Longitude
Unknown
Altitude
Unknown
Speed
Unknown
Apparent Right ascension
Unknown
Apparent Declination
Unknown
Sunlit
N/A
Visualization observer readout
Local Sidereal Time
20:40:32
Azimuth
Unknown
Elevation
Unknown
Doppler factor
Unknown
Orbital elements
Apogee altitude
936.796 km
Perigee altitude
759.233 km
Semi-major axis
7,226.151 km
Eccentricity
0.01229
Inclination
71.0775°
RAAN
56.8058°
Arg. of periapsis
249.5345°
True anomaly
142.00942°
Mean anomaly
141.1365°
Eccentric anomaly
141.574°
Mean motion
3.53332 °/min
Orbital period
101.89 mins
BSTAR
0.0011473
Loading maneuver chart data...
Computing Atmospheric mass density...

Documentation

Showing up to 5 results
|